This is the latest recevied weather packets stored in our database for station/object KT2UU-13. If no packets are shown the sender has not sent any weather packets the latest 10 day(s).
| Time | Temp. | Humidity | Pressure | Rain* | Wind** | Luminosity | Snow |
|---|---|---|---|---|---|---|---|
| 1777547521 | 13.33° C | 99% | 1011.7 hPa | 0 mm | - | - | - |
| 1777547220 | 13.33° C | 99% | 1011.6 hPa | 0 mm | - | - | - |
| 1777546917 | 13.33° C | 99% | 1011.7 hPa | 0 mm | - | - | - |
| 1777546613 | 13.33° C | 99% | 1011.7 hPa | 0 mm | - | - | - |
| 1777546310 | 13.33° C | 99% | 1011.5 hPa | 0 mm | - | - | - |
| 1777546008 | 13.33° C | 99% | 1010.6 hPa | 0 mm | - | - | - |
| 1777545703 | 13.89° C | 99% | 1011.4 hPa | 1.78 mm | - | - | - |
| 1777545401 | 13.89° C | 99% | 1012.1 hPa | 1.78 mm | - | - | - |
| 1777545098 | 13.89° C | 99% | 1012.3 hPa | 0 mm | - | - | - |
| 1777544795 | 13.33° C | 99% | 1011.8 hPa | 0 mm | - | - | - |
| 1777544490 | 13.33° C | 99% | 1012 hPa | 0 mm | - | - | - |
| 1777544187 | 13.33° C | 99% | 1011.6 hPa | 0 mm | - | - | - |
| 1777543885 | 13.33° C | 99% | 1011.8 hPa | 0 mm | - | - | - |
| 1777543581 | 13.33° C | 99% | 1012.1 hPa | 0 mm | - | - | - |
| 1777543277 | 13.89° C | 99% | 1012.4 hPa | 0 mm | - | - | - |
| 1777542973 | 13.33° C | 99% | 1011.8 hPa | 0 mm | - | - | - |
| 1777542669 | 13.89° C | 99% | 1011.6 hPa | 0 mm | - | - | - |
| 1777542366 | 13.89° C | 99% | 1011.9 hPa | 0 mm | - | - | - |
| 1777542063 | 13.89° C | 99% | 1012.4 hPa | 1.27 mm | - | - | - |
| 1777541760 | 13.89° C | 99% | 1012.5 hPa | 1.27 mm | - | - | - |
| 1777541456 | 13.89° C | 99% | 1012.3 hPa | 0 mm | - | - | - |
| 1777541152 | 13.89° C | 99% | 1012.1 hPa | 1.78 mm | - | - | - |
| 1777540850 | 13.89° C | 99% | 1012.3 hPa | 3.56 mm | - | - | - |
| 1777540548 | 13.89° C | 99% | 1012.2 hPa | 1.78 mm | - | - | - |
| 1777540243 | 13.89° C | 99% | 1012.3 hPa | 1.27 mm | - | - | - |
* Rain latest hour (hover to see other rain measurements)
** Current wind speed in m/s (hover to see current wind gust speed)